Stations météo

réclame
Mon MeteoGroup
Achnagart, Grande-Bretagne (99191): Température de l'air & dewpoint: 13.10.2017 04:00:00 - 19.10.2017 04:00:00 (BST)Achnagart, Grande-Bretagne (99191): Quantités de précipitations: 13.10.2017 04:00:00 - 19.10.2017 04:00:00 (BST)
Date & Time tt [°C] td [°C] rr [mm]
19.10.2017 04:00:00 12,7 7,4 -
19.10.2017 03:00:00 12,5 7,1 0,0
19.10.2017 02:00:00 11,9 6,0 0,0
19.10.2017 01:00:00 11,2 5,7 0,0
19.10.2017 00:00:00 11,1 5,6 0,0
18.10.2017 23:00:00 11,0 5,9 0,0
18.10.2017 22:00:00 11,1 5,8 0,0
18.10.2017 21:00:00 11,0 5,8 0,0
18.10.2017 20:00:00 10,8 5,9 0,0
18.10.2017 19:00:00 10,7 6,1 0,0
18.10.2017 18:00:00 11,0 6,0 0,0
18.10.2017 17:00:00 11,3 5,9 0,0
18.10.2017 16:00:00 11,5 5,8 0,0
18.10.2017 15:00:00 11,6 6,1 0,0
18.10.2017 14:00:00 11,4 6,5 0,0
18.10.2017 13:00:00 10,9 6,6 0,0
18.10.2017 12:00:00 10,7 6,1 0,0
18.10.2017 11:00:00 10,0 5,5 0,0
18.10.2017 10:00:00 9,4 5,4 0,0
18.10.2017 09:00:00 8,9 5,5 0,0
18.10.2017 08:00:00 8,8 5,5 0,0
18.10.2017 07:00:00 9,1 5,5 0,0
18.10.2017 06:00:00 9,3 5,5 0,0
18.10.2017 05:00:00 9,2 5,7 0,0
18.10.2017 04:00:00 9,4 5,4 0,0
18.10.2017 03:00:00 9,2 5,7 0,0
18.10.2017 02:00:00 8,9 5,2 0,0
18.10.2017 01:00:00 9,0 4,9 0,0
18.10.2017 00:00:00 8,6 5,4 0,0
17.10.2017 23:00:00 10,0 4,8 0,0
17.10.2017 22:00:00 10,1 6,2 0,0
17.10.2017 21:00:00 10,4 6,5 0,0
17.10.2017 20:00:00 9,3 8,5 0,0
17.10.2017 19:00:00 9,7 8,6 0,0
17.10.2017 18:00:00 10,6 8,4 0,0
17.10.2017 17:00:00 10,7 9,7 0,0
17.10.2017 16:00:00 11,5 9,3 0,0
17.10.2017 15:00:00 11,5 9,3 0,0
17.10.2017 14:00:00 11,7 9,0 0,0
17.10.2017 13:00:00 11,9 9,3 0,0
17.10.2017 12:00:00 11,8 10,1 0,4
17.10.2017 11:00:00 11,6 10,8 0,8
17.10.2017 10:00:00 12,2 11,2 0,2
17.10.2017 09:00:00 12,0 11,0 0,4
17.10.2017 08:00:00 13,4 10,5 0,0
17.10.2017 07:00:00 12,9 10,9 0,8
17.10.2017 06:00:00 12,5 10,5 0,8
17.10.2017 05:00:00 12,2 11,4 2,4
17.10.2017 04:00:00 11,4 11,3 9,6
17.10.2017 03:00:00 11,7 10,9 3,4
17.10.2017 02:00:00 12,4 10,7 3,6
17.10.2017 01:00:00 13,0 10,2 3,0
17.10.2017 00:00:00 12,9 10,3 3,2
16.10.2017 23:00:00 12,5 10,5 3,0
16.10.2017 22:00:00 12,2 10,4 1,2
16.10.2017 21:00:00 12,3 10,2 2,6
16.10.2017 20:00:00 12,9 10,5 2,4
16.10.2017 19:00:00 13,3 11,2 3,6
16.10.2017 18:00:00 12,7 10,6 0,4
16.10.2017 17:00:00 11,6 9,8 0,6
16.10.2017 16:00:00 10,9 9,2 0,0
16.10.2017 15:00:00 11,7 8,4 0,0
16.10.2017 14:00:00 11,0 7,6 0,0
16.10.2017 13:00:00 10,6 7,4 0,2
16.10.2017 12:00:00 10,1 7,2 0,4
16.10.2017 11:00:00 8,6 8,3 1,8
16.10.2017 10:00:00 8,2 8,2 1,6
16.10.2017 09:00:00 7,8 7,8 0,0
16.10.2017 08:00:00 7,5 7,5 0,4
16.10.2017 07:00:00 7,6 7,5 0,6
16.10.2017 06:00:00 7,5 7,4 0,0
16.10.2017 05:00:00 7,4 7,2 0,0
16.10.2017 04:00:00 7,5 7,2 0,0
16.10.2017 03:00:00 7,6 7,4 0,0
16.10.2017 02:00:00 7,6 7,2 0,0
16.10.2017 01:00:00 7,8 7,5 0,0
16.10.2017 00:00:00 8,0 7,4 0,0
15.10.2017 23:00:00 8,4 7,5 0,0
15.10.2017 22:00:00 8,8 7,6 0,0
15.10.2017 21:00:00 9,4 7,5 0,0
15.10.2017 20:00:00 9,5 7,3 0,0
15.10.2017 19:00:00 10,1 7,1 0,0
15.10.2017 18:00:00 9,9 8,1 0,2
15.10.2017 17:00:00 10,7 8,2 0,0
15.10.2017 16:00:00 11,3 8,2 0,4
15.10.2017 15:00:00 11,6 9,6 0,4
15.10.2017 14:00:00 14,5 11,7 1,0
15.10.2017 13:00:00 18,1 11,3 0,0
15.10.2017 12:00:00 17,8 11,4 0,0
15.10.2017 11:00:00 17,6 12,2 0,2
15.10.2017 10:00:00 16,5 13,0 0,2
15.10.2017 09:00:00 15,1 13,3 0,2
15.10.2017 08:00:00 14,6 13,2 1,6
15.10.2017 07:00:00 14,4 13,2 2,4
15.10.2017 06:00:00 14,4 13,5 2,2
15.10.2017 05:00:00 13,6 13,0 3,2
15.10.2017 04:00:00 13,7 12,5 2,8
15.10.2017 03:00:00 14,4 12,5 1,8
15.10.2017 02:00:00 14,4 12,4 1,2
15.10.2017 01:00:00 15,3 11,8 0,6
15.10.2017 00:00:00 9,3 9,1 0,8
14.10.2017 23:00:00 9,5 9,0 0,6
14.10.2017 22:00:00 9,2 8,4 2,4
14.10.2017 21:00:00 11,5 7,3 0,2
14.10.2017 20:00:00 10,9 7,4 0,0
14.10.2017 19:00:00 9,7 8,3 0,0
14.10.2017 18:00:00 11,2 7,4 0,0
14.10.2017 17:00:00 11,9 7,3 0,0
14.10.2017 16:00:00 11,0 9,4 0,6
14.10.2017 15:00:00 11,0 8,5 1,0
14.10.2017 14:00:00 12,3 7,5 0,2
14.10.2017 13:00:00 13,6 6,6 0,0
14.10.2017 12:00:00 13,4 6,1 0,0
14.10.2017 11:00:00 13,2 6,4 0,0
14.10.2017 10:00:00 13,0 5,7 0,0
14.10.2017 09:00:00 12,6 5,8 0,0
14.10.2017 08:00:00 12,8 5,9 0,0
14.10.2017 07:00:00 13,0 6,0 0,0
14.10.2017 06:00:00 12,4 6,4 0,0
14.10.2017 05:00:00 12,2 6,2 0,2
14.10.2017 04:00:00 13,0 5,9 0,0
14.10.2017 03:00:00 12,7 6,8 0,4
14.10.2017 02:00:00 13,2 6,1 0,2
14.10.2017 01:00:00 12,0 7,7 0,0
14.10.2017 00:00:00 13,1 5,9 0,0
13.10.2017 23:00:00 13,3 5,7 0,0
13.10.2017 22:00:00 13,6 5,9 0,0
13.10.2017 21:00:00 13,7 6,0 0,0
13.10.2017 20:00:00 13,2 6,4 0,0
13.10.2017 19:00:00 12,7 8,0 0,2
13.10.2017 18:00:00 14,0 5,2 0,0
13.10.2017 17:00:00 14,1 5,2 0,0
13.10.2017 16:00:00 14,8 4,7 0,0
13.10.2017 15:00:00 15,4 7,2 0,0
13.10.2017 14:00:00 15,1 8,5 0,0
13.10.2017 13:00:00 14,6 8,3 0,0
13.10.2017 12:00:00 14,7 8,5 0,0
13.10.2017 11:00:00 14,7 9,5 0,8
13.10.2017 10:00:00 16,2 13,5 3,0
13.10.2017 09:00:00 16,4 14,2 4,6
13.10.2017 08:00:00 16,9 14,6 8,4
13.10.2017 07:00:00 17,0 14,9 7,0
13.10.2017 06:00:00 17,6 15,1 11,4
13.10.2017 05:00:00 17,0 14,8 6,4
13.10.2017 04:00:00 17,3 15,3 4,0

tt = Température de l'air
td = dewpoint
rr = Quantités de précipitations

stations d'obs. à proximité